Year,Month,Day,Hour,Minute,Value (Times are PST for windspeed in km/hr)
2014,02,17,00,00,4.70
2014,02,17,00,01,8.10
2014,02,17,00,02,2.70
2014,02,17,00,03,4.10
2014,02,17,00,04,3.40
2014,02,17,00,05,3.10
2014,02,17,00,06,2.90
2014,02,17,00,07,3.90
2014,02,17,00,08,5.50
2014,02,17,00,09,6.10
2014,02,17,00,10,2.80
2014,02,17,00,11,2.20
2014,02,17,00,12,2.40
2014,02,17,00,13,2.90
2014,02,17,00,14,2.20
2014,02,17,00,15,1.10
2014,02,17,00,16,0.80
2014,02,17,00,17,1.20
2014,02,17,00,18,0.20
2014,02,17,00,19,2.70
2014,02,17,00,20,2.40
2014,02,17,00,21,2.30
2014,02,17,00,22,4.50
2014,02,17,00,23,3.70
2014,02,17,00,24,3.60
2014,02,17,00,25,1.20
2014,02,17,00,26,2.50
2014,02,17,00,27,2.70
2014,02,17,00,28,4.20
2014,02,17,00,29,4.10
2014,02,17,00,30,2.40
2014,02,17,00,31,3.60
2014,02,17,00,32,4.40
2014,02,17,00,33,4.30
2014,02,17,00,34,4.50
2014,02,17,00,35,4.10
2014,02,17,00,36,3.70
2014,02,17,00,37,2.30
2014,02,17,00,38,3.60
2014,02,17,00,39,2.90
2014,02,17,00,40,1.90
2014,02,17,00,41,1.20
2014,02,17,00,42,0.40
2014,02,17,00,43,0.00
2014,02,17,00,44,0.10
2014,02,17,00,45,0.00
2014,02,17,00,46,0.00
2014,02,17,00,47,0.60
2014,02,17,00,48,2.20
2014,02,17,00,49,2.80
2014,02,17,00,50,2.80
2014,02,17,00,51,2.90
2014,02,17,00,52,2.90
2014,02,17,00,53,3.40
2014,02,17,00,54,1.90
2014,02,17,00,55,0.30
2014,02,17,00,56,0.00
2014,02,17,00,57,0.00
2014,02,17,00,58,0.10
2014,02,17,00,59,0.50
2014,02,17,01,00,1.80
2014,02,17,01,01,3.10
2014,02,17,01,02,5.00
2014,02,17,01,03,3.70
2014,02,17,01,04,3.70
2014,02,17,01,05,2.10
2014,02,17,01,06,2.40
2014,02,17,01,07,2.40
2014,02,17,01,08,3.80
2014,02,17,01,09,3.70
2014,02,17,01,10,4.10
2014,02,17,01,11,4.40
2014,02,17,01,12,3.80
2014,02,17,01,13,3.00
2014,02,17,01,14,2.90
2014,02,17,01,15,1.90
2014,02,17,01,16,3.80
2014,02,17,01,17,2.00
2014,02,17,01,18,2.00
2014,02,17,01,19,1.00
2014,02,17,01,20,0.10
2014,02,17,01,21,0.00
2014,02,17,01,22,0.60
2014,02,17,01,23,1.10
2014,02,17,01,24,0.30
2014,02,17,01,25,2.70
2014,02,17,01,26,3.00
2014,02,17,01,27,1.90
2014,02,17,01,28,3.00
2014,02,17,01,29,3.60
2014,02,17,01,30,3.50
2014,02,17,01,31,1.90
2014,02,17,01,32,1.60
2014,02,17,01,33,2.50
2014,02,17,01,34,2.90
2014,02,17,01,35,0.90
2014,02,17,01,36,0.00
2014,02,17,01,37,1.20
2014,02,17,01,38,1.90
2014,02,17,01,39,1.10
2014,02,17,01,40,1.50
2014,02,17,01,41,2.80
2014,02,17,01,42,4.20
2014,02,17,01,43,6.20
2014,02,17,01,44,7.70
2014,02,17,01,45,7.60
2014,02,17,01,46,7.70
2014,02,17,01,47,6.30
2014,02,17,01,48,6.10
2014,02,17,01,49,8.60
2014,02,17,01,50,4.10
2014,02,17,01,51,4.40
2014,02,17,01,52,3.50
2014,02,17,01,53,4.00
2014,02,17,01,54,7.10
2014,02,17,01,55,6.50
2014,02,17,01,56,3.20
2014,02,17,01,57,2.60
2014,02,17,01,58,1.60
2014,02,17,01,59,3.30
2014,02,17,02,00,4.20
2014,02,17,02,01,3.70
2014,02,17,02,02,4.30
2014,02,17,02,03,4.60
2014,02,17,02,04,5.60
2014,02,17,02,05,3.30
2014,02,17,02,06,1.30
2014,02,17,02,07,0.50
2014,02,17,02,08,0.90
2014,02,17,02,09,0.60
2014,02,17,02,10,0.20
2014,02,17,02,11,0.30
2014,02,17,02,12,1.20
2014,02,17,02,13,0.00
2014,02,17,02,14,0.10
2014,02,17,02,15,1.40
2014,02,17,02,16,0.60
2014,02,17,02,17,0.30
2014,02,17,02,18,1.80
2014,02,17,02,19,1.30
2014,02,17,02,20,0.40
2014,02,17,02,21,0.40
2014,02,17,02,22,0.50
2014,02,17,02,23,0.00
2014,02,17,02,24,0.10
2014,02,17,02,25,1.40
2014,02,17,02,26,1.60
2014,02,17,02,27,0.80
2014,02,17,02,28,0.80
2014,02,17,02,29,0.50
2014,02,17,02,30,0.40
2014,02,17,02,31,1.60
2014,02,17,02,32,0.80
2014,02,17,02,33,0.80
2014,02,17,02,34,0.70
2014,02,17,02,35,2.20
2014,02,17,02,36,2.10
2014,02,17,02,37,1.80
2014,02,17,02,38,0.90
2014,02,17,02,39,0.20
2014,02,17,02,40,1.00
2014,02,17,02,41,1.70
2014,02,17,02,42,1.80
2014,02,17,02,43,1.70
2014,02,17,02,44,2.10
2014,02,17,02,45,2.00
2014,02,17,02,46,1.00
2014,02,17,02,47,0.70
2014,02,17,02,48,1.00
2014,02,17,02,49,1.60
2014,02,17,02,50,2.00
2014,02,17,02,51,1.70
2014,02,17,02,52,1.90
2014,02,17,02,53,3.20
2014,02,17,02,54,4.20
2014,02,17,02,55,4.30
2014,02,17,02,56,3.90
2014,02,17,02,57,3.60
2014,02,17,02,58,3.90
2014,02,17,02,59,4.40
2014,02,17,03,00,3.30
2014,02,17,03,01,4.80
2014,02,17,03,02,4.50
2014,02,17,03,03,3.90
2014,02,17,03,04,3.70
2014,02,17,03,05,4.00
2014,02,17,03,06,1.70
2014,02,17,03,07,3.30
2014,02,17,03,08,3.30
2014,02,17,03,09,2.80
2014,02,17,03,10,3.10
2014,02,17,03,11,4.40
2014,02,17,03,12,3.90
2014,02,17,03,13,2.70
2014,02,17,03,14,2.10
2014,02,17,03,15,0.90
2014,02,17,03,16,0.90
2014,02,17,03,17,0.10
2014,02,17,03,18,1.50
2014,02,17,03,19,3.30
2014,02,17,03,20,3.00
2014,02,17,03,21,3.20
2014,02,17,03,22,2.70
2014,02,17,03,23,2.00
2014,02,17,03,24,1.90
2014,02,17,03,25,2.20
2014,02,17,03,26,2.50
2014,02,17,03,27,2.70
2014,02,17,03,28,4.10
2014,02,17,03,29,3.20
2014,02,17,03,30,1.40
2014,02,17,03,31,0.20
2014,02,17,03,32,0.40
2014,02,17,03,33,0.80
2014,02,17,03,34,0.80
2014,02,17,03,35,1.50
2014,02,17,03,36,2.10
2014,02,17,03,37,2.60
2014,02,17,03,38,3.20
2014,02,17,03,39,2.40
2014,02,17,03,40,1.40
2014,02,17,03,41,2.00
2014,02,17,03,42,2.10
2014,02,17,03,43,2.20
2014,02,17,03,44,1.70
2014,02,17,03,45,0.90
2014,02,17,03,46,3.00
2014,02,17,03,47,3.30
2014,02,17,03,48,2.80
2014,02,17,03,49,2.50
2014,02,17,03,50,2.70
2014,02,17,03,51,3.50
2014,02,17,03,52,2.60
2014,02,17,03,53,3.00
2014,02,17,03,54,2.40
2014,02,17,03,55,1.10
2014,02,17,03,56,0.60
2014,02,17,03,57,0.30
2014,02,17,03,58,1.60
2014,02,17,03,59,2.80
2014,02,17,04,00,2.70
2014,02,17,04,01,1.50
2014,02,17,04,02,1.00
2014,02,17,04,03,0.00
2014,02,17,04,04,0.20
2014,02,17,04,05,0.00
2014,02,17,04,06,0.00
2014,02,17,04,07,0.20
2014,02,17,04,08,0.30
2014,02,17,04,09,1.20
2014,02,17,04,10,2.10
2014,02,17,04,11,2.80
2014,02,17,04,12,4.30
2014,02,17,04,13,6.10
2014,02,17,04,14,4.00
2014,02,17,04,15,3.20
2014,02,17,04,16,3.00
2014,02,17,04,17,3.40
2014,02,17,04,18,3.40
2014,02,17,04,19,2.50
2014,02,17,04,20,2.50
2014,02,17,04,21,2.20
2014,02,17,04,22,2.70
2014,02,17,04,23,2.90
2014,02,17,04,24,2.50
2014,02,17,04,25,4.20
2014,02,17,04,26,2.80
2014,02,17,04,27,1.60
2014,02,17,04,28,2.40
2014,02,17,04,29,2.50
2014,02,17,04,30,2.30
2014,02,17,04,31,2.50
2014,02,17,04,32,3.00
2014,02,17,04,33,4.10
2014,02,17,04,34,3.90
2014,02,17,04,35,2.50
2014,02,17,04,36,2.60
2014,02,17,04,37,3.30
2014,02,17,04,38,2.50
2014,02,17,04,39,1.90
2014,02,17,04,40,1.50
2014,02,17,04,41,1.60
2014,02,17,04,42,2.10
2014,02,17,04,43,1.70
2014,02,17,04,44,1.60
2014,02,17,04,45,1.20
2014,02,17,04,46,1.70
2014,02,17,04,47,1.60
2014,02,17,04,48,2.20
2014,02,17,04,49,2.10
2014,02,17,04,50,2.40
2014,02,17,04,51,1.50
2014,02,17,04,52,1.60
2014,02,17,04,53,1.80
2014,02,17,04,54,3.40
2014,02,17,04,55,3.00
2014,02,17,04,56,2.70
2014,02,17,04,57,1.80
2014,02,17,04,58,2.00
2014,02,17,04,59,1.80
2014,02,17,05,00,1.30
2014,02,17,05,01,1.90
2014,02,17,05,02,2.20
2014,02,17,05,03,1.20
2014,02,17,05,04,2.20
2014,02,17,05,05,4.50
2014,02,17,05,06,3.70
2014,02,17,05,07,2.90
2014,02,17,05,08,2.70
2014,02,17,05,09,3.10
2014,02,17,05,10,4.70
2014,02,17,05,11,3.20
2014,02,17,05,12,3.90
2014,02,17,05,13,5.10
2014,02,17,05,14,4.20
2014,02,17,05,15,3.10
2014,02,17,05,16,2.10
2014,02,17,05,17,1.80
2014,02,17,05,18,1.70
2014,02,17,05,19,1.40
2014,02,17,05,20,2.40
2014,02,17,05,21,3.30
2014,02,17,05,22,1.80
2014,02,17,05,23,0.40
2014,02,17,05,24,0.20
2014,02,17,05,25,0.30
2014,02,17,05,26,1.40
2014,02,17,05,27,1.70
2014,02,17,05,28,2.50
2014,02,17,05,29,1.40
2014,02,17,05,30,2.90
2014,02,17,05,31,2.40
2014,02,17,05,32,2.50
2014,02,17,05,33,2.20
2014,02,17,05,34,2.30
2014,02,17,05,35,3.10
2014,02,17,05,36,2.50
2014,02,17,05,37,3.40
2014,02,17,05,38,3.80
2014,02,17,05,39,3.10
2014,02,17,05,40,1.60
2014,02,17,05,41,0.50
2014,02,17,05,42,1.10
2014,02,17,05,43,3.70
2014,02,17,05,44,2.70
2014,02,17,05,45,2.30
2014,02,17,05,46,3.40
2014,02,17,05,47,3.40
2014,02,17,05,48,4.90
2014,02,17,05,49,4.70
2014,02,17,05,50,3.20
2014,02,17,05,51,3.50
2014,02,17,05,52,2.30
2014,02,17,05,53,3.30
2014,02,17,05,54,5.00
2014,02,17,05,55,4.50
2014,02,17,05,56,5.50
2014,02,17,05,57,5.20
2014,02,17,05,58,5.60
2014,02,17,05,59,5.30
2014,02,17,06,00,4.10
2014,02,17,06,01,4.10
2014,02,17,06,02,3.60
2014,02,17,06,03,4.70
2014,02,17,06,04,3.20
2014,02,17,06,05,3.40
2014,02,17,06,06,3.30
2014,02,17,06,07,2.60
2014,02,17,06,08,2.60
2014,02,17,06,09,2.40
2014,02,17,06,10,1.80
2014,02,17,06,11,1.80
2014,02,17,06,12,2.10
2014,02,17,06,13,0.80
2014,02,17,06,14,0.70
2014,02,17,06,15,2.30
2014,02,17,06,16,3.70
2014,02,17,06,17,2.40
2014,02,17,06,18,2.70
2014,02,17,06,19,3.40
2014,02,17,06,20,4.00
2014,02,17,06,21,4.10
2014,02,17,06,22,4.70
2014,02,17,06,23,4.20
2014,02,17,06,24,3.70
2014,02,17,06,25,3.40
2014,02,17,06,26,3.50
2014,02,17,06,27,3.50
2014,02,17,06,28,4.20
2014,02,17,06,29,5.50
2014,02,17,06,30,4.70
2014,02,17,06,31,4.90
2014,02,17,06,32,5.20
2014,02,17,06,33,5.80
2014,02,17,06,34,5.30
2014,02,17,06,35,4.30
2014,02,17,06,36,3.10
2014,02,17,06,37,3.30
2014,02,17,06,38,4.40
2014,02,17,06,39,2.90
2014,02,17,06,40,3.50
2014,02,17,06,41,3.80
2014,02,17,06,42,4.30
2014,02,17,06,43,4.00
2014,02,17,06,44,3.70
2014,02,17,06,45,4.10
2014,02,17,06,46,3.40
2014,02,17,06,47,3.50
2014,02,17,06,48,3.10
2014,02,17,06,49,3.50
2014,02,17,06,50,3.90
2014,02,17,06,51,2.40
2014,02,17,06,52,3.50
2014,02,17,06,53,3.80
2014,02,17,06,54,2.90
2014,02,17,06,55,3.80
2014,02,17,06,56,3.80
2014,02,17,06,57,3.50
2014,02,17,06,58,3.50
2014,02,17,06,59,3.80
2014,02,17,07,00,3.50
2014,02,17,07,01,2.60
2014,02,17,07,02,2.30
2014,02,17,07,03,1.60
2014,02,17,07,04,1.60
2014,02,17,07,05,0.60
2014,02,17,07,06,1.20
2014,02,17,07,07,1.90
2014,02,17,07,08,2.30
2014,02,17,07,09,2.40
2014,02,17,07,10,1.30
2014,02,17,07,11,0.20
2014,02,17,07,12,1.40
2014,02,17,07,13,1.70
2014,02,17,07,14,1.30
2014,02,17,07,15,0.10
2014,02,17,07,16,1.10
2014,02,17,07,17,1.50
2014,02,17,07,18,1.30
2014,02,17,07,19,1.90
2014,02,17,07,20,2.90
2014,02,17,07,21,2.50
2014,02,17,07,22,2.40
2014,02,17,07,23,2.60
2014,02,17,07,24,1.60
2014,02,17,07,25,1.00
2014,02,17,07,26,0.20
2014,02,17,07,27,0.30
2014,02,17,07,28,0.20
2014,02,17,07,29,0.30
2014,02,17,07,30,0.90
2014,02,17,07,31,1.50
2014,02,17,07,32,1.30
2014,02,17,07,33,0.40
2014,02,17,07,34,0.40
2014,02,17,07,35,0.50
2014,02,17,07,36,0.10
2014,02,17,07,37,0.10
2014,02,17,07,38,0.60
2014,02,17,07,39,0.00
2014,02,17,07,40,0.80
2014,02,17,07,41,0.10
2014,02,17,07,42,0.60
2014,02,17,07,43,1.70
2014,02,17,07,44,1.80
2014,02,17,07,45,2.00
2014,02,17,07,46,2.60
2014,02,17,07,47,2.90
2014,02,17,07,48,3.20
2014,02,17,07,49,2.70
2014,02,17,07,50,1.70
2014,02,17,07,51,2.10
2014,02,17,07,52,1.70
2014,02,17,07,53,2.40
2014,02,17,07,54,2.90
2014,02,17,07,55,3.10
2014,02,17,07,56,3.20
2014,02,17,07,57,3.60
2014,02,17,07,58,3.70
2014,02,17,07,59,2.90
2014,02,17,08,00,3.50
2014,02,17,08,01,3.80
2014,02,17,08,02,3.50
2014,02,17,08,03,3.40
2014,02,17,08,04,2.40
2014,02,17,08,05,2.20
2014,02,17,08,06,2.60
2014,02,17,08,07,2.80
2014,02,17,08,08,3.20
2014,02,17,08,09,3.00
2014,02,17,08,10,2.90
2014,02,17,08,11,3.70
2014,02,17,08,12,3.30
2014,02,17,08,13,3.20
2014,02,17,08,14,2.30
2014,02,17,08,15,2.20
2014,02,17,08,16,1.60
2014,02,17,08,17,1.40
2014,02,17,08,18,2.50
2014,02,17,08,19,2.90
2014,02,17,08,20,2.80
2014,02,17,08,21,2.90
2014,02,17,08,22,2.10
2014,02,17,08,23,1.80
2014,02,17,08,24,1.30
2014,02,17,08,25,1.40
2014,02,17,08,26,1.20
2014,02,17,08,27,0.50
2014,02,17,08,28,0.60
2014,02,17,08,29,0.30
2014,02,17,08,30,0.10
2014,02,17,08,31,0.90
2014,02,17,08,32,1.50
2014,02,17,08,33,1.40
2014,02,17,08,34,1.60
2014,02,17,08,35,2.80
2014,02,17,08,36,2.50
2014,02,17,08,37,3.10
2014,02,17,08,38,3.10
2014,02,17,08,39,3.00
2014,02,17,08,40,2.40
2014,02,17,08,41,2.20
2014,02,17,08,42,1.40
2014,02,17,08,43,1.60
2014,02,17,08,44,1.40
2014,02,17,08,45,1.70
2014,02,17,08,46,1.40
2014,02,17,08,47,1.60
2014,02,17,08,48,2.90
2014,02,17,08,49,2.90
2014,02,17,08,50,1.60
2014,02,17,08,51,1.00
2014,02,17,08,52,0.70
2014,02,17,08,53,2.30
2014,02,17,08,54,2.00
2014,02,17,08,55,1.60
2014,02,17,08,56,1.30
2014,02,17,08,57,1.10
2014,02,17,08,58,0.90
2014,02,17,08,59,0.00
2014,02,17,09,00,1.10
2014,02,17,09,01,1.80
2014,02,17,09,02,2.20
2014,02,17,09,03,0.30
2014,02,17,09,04,0.50
2014,02,17,09,05,0.90
2014,02,17,09,06,1.10
2014,02,17,09,07,2.10
2014,02,17,09,08,2.10
2014,02,17,09,09,2.50
2014,02,17,09,10,1.50
2014,02,17,09,11,2.80
2014,02,17,09,12,3.00
2014,02,17,09,13,1.70
2014,02,17,09,14,1.80
2014,02,17,09,15,0.60
2014,02,17,09,16,1.20
2014,02,17,09,17,1.50
2014,02,17,09,18,0.90
2014,02,17,09,19,0.90
2014,02,17,09,20,1.00
2014,02,17,09,21,0.70
2014,02,17,09,22,1.20
2014,02,17,09,23,1.30
2014,02,17,09,24,1.60
2014,02,17,09,25,2.30
2014,02,17,09,26,2.40
2014,02,17,09,27,1.10
2014,02,17,09,28,2.00
2014,02,17,09,29,1.80
2014,02,17,09,30,3.00
2014,02,17,09,31,3.40
2014,02,17,09,32,1.90
2014,02,17,09,33,1.90
2014,02,17,09,34,3.20
2014,02,17,09,35,3.00
2014,02,17,09,36,2.70
2014,02,17,09,37,3.20
2014,02,17,09,38,2.60
2014,02,17,09,39,3.00
2014,02,17,09,40,3.80
2014,02,17,09,41,3.90
2014,02,17,09,42,3.80
2014,02,17,09,43,3.80
2014,02,17,09,44,2.70
2014,02,17,09,45,2.90
2014,02,17,09,46,3.40
2014,02,17,09,47,2.20
2014,02,17,09,48,3.40
2014,02,17,09,49,2.60
2014,02,17,09,50,2.70
2014,02,17,09,51,2.00
2014,02,17,09,52,1.40
2014,02,17,09,53,2.00
2014,02,17,09,54,0.70
2014,02,17,09,55,4.00
2014,02,17,09,56,3.60
2014,02,17,09,57,2.70
2014,02,17,09,58,3.30
2014,02,17,09,59,3.10
2014,02,17,10,00,3.90
2014,02,17,10,01,4.10
2014,02,17,10,02,3.30
2014,02,17,10,03,3.10
2014,02,17,10,04,3.60
2014,02,17,10,05,2.80
2014,02,17,10,06,2.30
2014,02,17,10,07,3.40
2014,02,17,10,08,5.30
2014,02,17,10,09,3.40
2014,02,17,10,10,1.80
2014,02,17,10,11,1.90
2014,02,17,10,12,1.90
2014,02,17,10,13,2.20
2014,02,17,10,14,2.80
2014,02,17,10,15,4.80
2014,02,17,10,16,2.50
2014,02,17,10,17,3.30
2014,02,17,10,18,1.90
2014,02,17,10,19,1.60
2014,02,17,10,20,1.70
2014,02,17,10,21,1.90
2014,02,17,10,22,3.80
2014,02,17,10,23,2.40
2014,02,17,10,24,3.10
2014,02,17,10,25,2.30
2014,02,17,10,26,3.40
2014,02,17,10,27,3.10
2014,02,17,10,28,4.00
2014,02,17,10,29,4.10
2014,02,17,10,30,4.30
2014,02,17,10,31,3.60
2014,02,17,10,32,3.80
2014,02,17,10,33,3.80
2014,02,17,10,34,5.60
2014,02,17,10,35,3.60
2014,02,17,10,36,4.30
2014,02,17,10,37,3.40
2014,02,17,10,38,6.10
2014,02,17,10,39,4.90
2014,02,17,10,40,7.20
2014,02,17,10,41,4.60
2014,02,17,10,42,4.50
2014,02,17,10,43,3.60
2014,02,17,10,44,5.00
2014,02,17,10,45,5.90
2014,02,17,10,46,4.40
2014,02,17,10,47,4.70
2014,02,17,10,48,5.30
2014,02,17,10,49,4.00
2014,02,17,10,50,3.90
2014,02,17,10,51,4.00
2014,02,17,10,52,4.00
2014,02,17,10,53,4.60
2014,02,17,10,54,5.50
2014,02,17,10,55,5.30
2014,02,17,10,56,4.30
2014,02,17,10,57,3.60
2014,02,17,10,58,2.10
2014,02,17,10,59,1.60
2014,02,17,11,00,2.60
2014,02,17,11,01,2.90
2014,02,17,11,02,3.40
2014,02,17,11,03,1.30
2014,02,17,11,04,2.40
2014,02,17,11,05,2.50
2014,02,17,11,06,2.40
2014,02,17,11,07,4.00
2014,02,17,11,08,3.20
2014,02,17,11,09,3.40
2014,02,17,11,10,3.30
2014,02,17,11,11,1.90
2014,02,17,11,12,1.90
2014,02,17,11,13,1.50
2014,02,17,11,14,2.30
2014,02,17,11,15,2.20
2014,02,17,11,16,3.20
2014,02,17,11,17,2.80
2014,02,17,11,18,2.60
2014,02,17,11,19,2.10
2014,02,17,11,20,1.60
2014,02,17,11,21,2.30
2014,02,17,11,22,1.70
2014,02,17,11,23,0.10
2014,02,17,11,24,0.00
2014,02,17,11,25,0.20
2014,02,17,11,26,0.20
2014,02,17,11,27,0.70
2014,02,17,11,28,0.90
2014,02,17,11,29,0.80
2014,02,17,11,30,1.20
2014,02,17,11,31,1.60
2014,02,17,11,32,1.70
2014,02,17,11,33,1.10
2014,02,17,11,34,1.20
2014,02,17,11,35,0.30
2014,02,17,11,36,0.00
2014,02,17,11,37,0.20
2014,02,17,11,38,1.70
2014,02,17,11,39,2.50
2014,02,17,11,40,2.80
2014,02,17,11,41,1.40
2014,02,17,11,42,0.60
2014,02,17,11,43,0.90
2014,02,17,11,44,1.10
2014,02,17,11,45,1.90
2014,02,17,11,46,2.40
2014,02,17,11,47,0.60
2014,02,17,11,48,1.40
2014,02,17,11,49,1.60
2014,02,17,11,50,1.60
2014,02,17,11,51,0.70
2014,02,17,11,52,0.90
2014,02,17,11,53,0.30
2014,02,17,11,54,1.30
2014,02,17,11,55,2.90
2014,02,17,11,56,3.30
2014,02,17,11,57,2.10
2014,02,17,11,58,0.90
2014,02,17,11,59,1.80
2014,02,17,12,00,3.00
2014,02,17,12,01,2.60
2014,02,17,12,02,2.50
2014,02,17,12,03,5.00
2014,02,17,12,04,3.40
2014,02,17,12,05,3.40
2014,02,17,12,06,2.40
2014,02,17,12,07,3.80
2014,02,17,12,08,2.90
2014,02,17,12,09,2.40
2014,02,17,12,10,1.60
2014,02,17,12,11,1.70
2014,02,17,12,12,1.30
2014,02,17,12,13,2.60
2014,02,17,12,14,1.60
2014,02,17,12,15,0.70
2014,02,17,12,16,1.80
2014,02,17,12,17,1.70
2014,02,17,12,18,0.70
2014,02,17,12,19,2.20
2014,02,17,12,20,1.50
2014,02,17,12,21,1.30
2014,02,17,12,22,0.90
2014,02,17,12,23,0.40
2014,02,17,12,24,1.20
2014,02,17,12,25,0.50
2014,02,17,12,26,1.30
2014,02,17,12,27,3.90
2014,02,17,12,28,2.60
2014,02,17,12,29,2.80
2014,02,17,12,30,4.50
2014,02,17,12,31,3.90
2014,02,17,12,32,4.50
2014,02,17,12,33,3.50
2014,02,17,12,34,3.40
2014,02,17,12,35,3.70
2014,02,17,12,36,3.10
2014,02,17,12,37,4.10
2014,02,17,12,38,6.20
2014,02,17,12,39,5.40
2014,02,17,12,40,5.60
2014,02,17,12,41,6.20
2014,02,17,12,42,4.70
2014,02,17,12,43,4.80
2014,02,17,12,44,2.10
2014,02,17,12,45,4.90
2014,02,17,12,46,2.30
2014,02,17,12,47,2.20
2014,02,17,12,48,2.60
2014,02,17,12,49,4.10
2014,02,17,12,50,3.80
2014,02,17,12,51,5.80
2014,02,17,12,52,6.20
2014,02,17,12,53,3.50
2014,02,17,12,54,1.60
2014,02,17,12,55,2.20
2014,02,17,12,56,2.20
2014,02,17,12,57,6.30
2014,02,17,12,58,6.20
2014,02,17,12,59,5.10
2014,02,17,13,00,7.40
2014,02,17,13,01,8.70
2014,02,17,13,02,8.80
2014,02,17,13,03,4.90
2014,02,17,13,04,4.30
2014,02,17,13,05,3.20
2014,02,17,13,06,4.90
2014,02,17,13,07,8.00
2014,02,17,13,08,9.00
2014,02,17,13,09,9.20
2014,02,17,13,10,7.40
2014,02,17,13,11,6.20
2014,02,17,13,12,6.60
2014,02,17,13,13,8.20
2014,02,17,13,14,4.00
2014,02,17,13,15,5.10
2014,02,17,13,16,4.50
2014,02,17,13,17,5.50
2014,02,17,13,18,5.60
2014,02,17,13,19,3.90
2014,02,17,13,20,4.10
2014,02,17,13,21,6.20
2014,02,17,13,22,4.20
2014,02,17,13,23,5.50
2014,02,17,13,24,6.80
2014,02,17,13,25,6.30
2014,02,17,13,26,3.80
2014,02,17,13,27,3.70
2014,02,17,13,28,5.20
2014,02,17,13,29,5.90
2014,02,17,13,30,7.80
2014,02,17,13,31,8.40
2014,02,17,13,32,5.80
2014,02,17,13,33,3.40
2014,02,17,13,34,4.00
2014,02,17,13,35,6.40
2014,02,17,13,36,6.50
2014,02,17,13,37,4.50
2014,02,17,13,38,6.30
2014,02,17,13,39,6.40
2014,02,17,13,40,5.40
2014,02,17,13,41,6.30
2014,02,17,13,42,7.70
2014,02,17,13,43,5.70
2014,02,17,13,44,8.80
2014,02,17,13,45,9.80
2014,02,17,13,46,9.70
2014,02,17,13,47,11.30
2014,02,17,13,48,7.70
2014,02,17,13,49,8.40
2014,02,17,13,50,8.80
2014,02,17,13,51,7.90
2014,02,17,13,52,10.00
2014,02,17,13,53,9.30
2014,02,17,13,54,13.00
2014,02,17,13,55,10.70
2014,02,17,13,56,10.30
2014,02,17,13,57,8.40
2014,02,17,13,58,9.90
2014,02,17,13,59,8.20
2014,02,17,14,00,2.70
2014,02,17,14,01,4.80
2014,02,17,14,02,5.80
2014,02,17,14,03,4.20
2014,02,17,14,04,8.60
2014,02,17,14,05,6.70
2014,02,17,14,06,7.10
2014,02,17,14,07,7.40
2014,02,17,14,08,6.40
2014,02,17,14,09,6.00
2014,02,17,14,10,8.20
2014,02,17,14,11,4.70
2014,02,17,14,12,9.80
2014,02,17,14,13,9.80
2014,02,17,14,14,12.20
2014,02,17,14,15,11.80
2014,02,17,14,16,10.50
2014,02,17,14,17,8.20
2014,02,17,14,18,6.80
2014,02,17,14,19,5.80
2014,02,17,14,20,5.90
2014,02,17,14,21,8.80
2014,02,17,14,22,6.70
2014,02,17,14,23,6.20
2014,02,17,14,24,4.10
2014,02,17,14,25,6.10
2014,02,17,14,26,8.60
2014,02,17,14,27,5.50
2014,02,17,14,28,7.70
2014,02,17,14,29,5.70
2014,02,17,14,30,5.30
2014,02,17,14,31,6.40
2014,02,17,14,32,5.70
2014,02,17,14,33,3.00
2014,02,17,14,34,6.70
2014,02,17,14,35,2.40
2014,02,17,14,36,5.10
2014,02,17,14,37,6.00
2014,02,17,14,38,7.90
2014,02,17,14,39,8.10
2014,02,17,14,40,7.00
2014,02,17,14,41,14.80
2014,02,17,14,42,11.30
2014,02,17,14,43,5.90
2014,02,17,14,44,10.20
2014,02,17,14,45,5.20
2014,02,17,14,46,4.30
2014,02,17,14,47,3.70
2014,02,17,14,48,6.30
2014,02,17,14,49,8.10
2014,02,17,14,50,9.70
2014,02,17,14,51,8.30
2014,02,17,14,52,6.10
2014,02,17,14,53,3.10
2014,02,17,14,54,7.90
2014,02,17,14,55,4.00
2014,02,17,14,56,8.90
2014,02,17,14,57,4.50
2014,02,17,14,58,6.10
2014,02,17,14,59,3.60
2014,02,17,15,00,11.50
2014,02,17,15,01,10.80
2014,02,17,15,02,10.80
2014,02,17,15,03,10.70
2014,02,17,15,04,10.00
2014,02,17,15,05,8.60
2014,02,17,15,06,3.70
2014,02,17,15,07,7.80
2014,02,17,15,08,11.40
2014,02,17,15,09,9.70
2014,02,17,15,10,6.80
2014,02,17,15,11,8.20
2014,02,17,15,12,10.30
2014,02,17,15,13,8.90
2014,02,17,15,14,4.00
2014,02,17,15,15,6.10
2014,02,17,15,16,5.90
2014,02,17,15,17,11.30
2014,02,17,15,18,13.50
2014,02,17,15,19,9.40
2014,02,17,15,20,5.40
2014,02,17,15,21,11.90
2014,02,17,15,22,9.50
2014,02,17,15,23,8.30
2014,02,17,15,24,7.90
2014,02,17,15,25,8.10
2014,02,17,15,26,6.10
2014,02,17,15,27,6.20
2014,02,17,15,28,4.30
2014,02,17,15,29,6.80
2014,02,17,15,30,4.80
2014,02,17,15,31,6.30
2014,02,17,15,32,11.20
2014,02,17,15,33,6.80
2014,02,17,15,34,8.90
2014,02,17,15,35,7.70
2014,02,17,15,36,7.10
2014,02,17,15,37,4.40
2014,02,17,15,38,5.50
2014,02,17,15,39,7.30
2014,02,17,15,40,5.00
2014,02,17,15,41,5.20
2014,02,17,15,42,11.00
2014,02,17,15,43,9.80
2014,02,17,15,44,9.60
2014,02,17,15,45,9.40
2014,02,17,15,46,11.00
2014,02,17,15,47,10.10
2014,02,17,15,48,9.50
2014,02,17,15,49,9.60
2014,02,17,15,50,9.70
2014,02,17,15,51,5.90
2014,02,17,15,52,3.70
2014,02,17,15,53,9.90
2014,02,17,15,54,8.80
2014,02,17,15,55,6.80
2014,02,17,15,56,7.20
2014,02,17,15,57,5.60
2014,02,17,15,58,4.40
2014,02,17,15,59,7.30
2014,02,17,16,00,7.70
2014,02,17,16,01,5.10
2014,02,17,16,02,5.80
2014,02,17,16,03,5.20
2014,02,17,16,04,8.70
2014,02,17,16,05,8.70
2014,02,17,16,06,7.50
2014,02,17,16,07,7.90
2014,02,17,16,08,7.30
2014,02,17,16,09,6.00
2014,02,17,16,10,7.00
2014,02,17,16,11,5.90
2014,02,17,16,12,4.80
2014,02,17,16,13,3.80
2014,02,17,16,14,4.40
2014,02,17,16,15,2.00
2014,02,17,16,16,2.10
2014,02,17,16,17,2.40
2014,02,17,16,18,3.70
2014,02,17,16,19,5.60
2014,02,17,16,20,5.30
2014,02,17,16,21,5.10
2014,02,17,16,22,4.60
2014,02,17,16,23,2.10
2014,02,17,16,24,1.30
2014,02,17,16,25,2.20
2014,02,17,16,26,1.80
2014,02,17,16,27,3.10
2014,02,17,16,28,3.80
2014,02,17,16,29,3.30
2014,02,17,16,30,2.20
2014,02,17,16,31,2.70
2014,02,17,16,32,2.00
2014,02,17,16,33,1.50
2014,02,17,16,34,1.80
2014,02,17,16,35,1.70
2014,02,17,16,36,3.40
2014,02,17,16,37,3.90
2014,02,17,16,38,2.40
2014,02,17,16,39,3.90
2014,02,17,16,40,5.80
2014,02,17,16,41,4.30
2014,02,17,16,42,3.60
2014,02,17,16,43,4.60
2014,02,17,16,44,2.30
2014,02,17,16,45,3.20
2014,02,17,16,46,8.70
2014,02,17,16,47,11.30
2014,02,17,16,48,6.30
2014,02,17,16,49,2.90
2014,02,17,16,50,2.00
2014,02,17,16,51,3.40
2014,02,17,16,52,5.50
2014,02,17,16,53,4.40
2014,02,17,16,54,4.90
2014,02,17,16,55,7.30
2014,02,17,16,56,9.70
2014,02,17,16,57,6.20
2014,02,17,16,58,8.30
2014,02,17,16,59,4.00
2014,02,17,17,00,7.80
2014,02,17,17,01,5.90
2014,02,17,17,02,7.90
2014,02,17,17,03,12.80
2014,02,17,17,04,10.70
2014,02,17,17,05,6.00
2014,02,17,17,06,4.70
2014,02,17,17,07,9.10
2014,02,17,17,08,9.90
2014,02,17,17,09,11.50
2014,02,17,17,10,10.40
2014,02,17,17,11,9.00
2014,02,17,17,12,5.00
2014,02,17,17,13,9.40
2014,02,17,17,14,8.30
2014,02,17,17,15,11.00
2014,02,17,17,16,6.80
2014,02,17,17,17,9.30
2014,02,17,17,18,7.50
2014,02,17,17,19,7.00
2014,02,17,17,20,9.30
2014,02,17,17,21,7.80
2014,02,17,17,22,14.60
2014,02,17,17,23,11.70
2014,02,17,17,24,11.60
2014,02,17,17,25,13.40
2014,02,17,17,26,14.50
2014,02,17,17,27,14.50
2014,02,17,17,28,15.20
2014,02,17,17,29,10.50
2014,02,17,17,30,11.60
2014,02,17,17,31,7.90
2014,02,17,17,32,7.20
2014,02,17,17,33,5.60
2014,02,17,17,34,6.70
2014,02,17,17,35,5.90
2014,02,17,17,36,4.90
2014,02,17,17,37,5.10
2014,02,17,17,38,4.00
2014,02,17,17,39,3.50
2014,02,17,17,40,4.80
2014,02,17,17,41,5.10
2014,02,17,17,42,4.90
2014,02,17,17,43,4.80
2014,02,17,17,44,4.30
2014,02,17,17,45,3.60
2014,02,17,17,46,4.40
2014,02,17,17,47,4.00
2014,02,17,17,48,5.30
2014,02,17,17,49,5.30
2014,02,17,17,50,5.20
2014,02,17,17,51,5.10
2014,02,17,17,52,5.70
2014,02,17,17,53,3.80
2014,02,17,17,54,6.60
2014,02,17,17,55,6.40
2014,02,17,17,56,5.30
2014,02,17,17,57,3.80
2014,02,17,17,58,5.90
2014,02,17,17,59,3.70
2014,02,17,18,00,3.40
2014,02,17,18,01,2.80
2014,02,17,18,02,3.20
2014,02,17,18,03,3.00
2014,02,17,18,04,3.00